Location: Buena Vista
(37.7110°N, 119.7938°W)
Time: 09:04:44
(UTC+00:00)

YUBILEINY - Visible Passes

Search period start: 07 October 2024 00:00
Search period end: 17 October 2024 00:00
Orbit: 1478 x 1508 km, 82.5° (Epoch: 06 October)

Date Brightness Start Highest point End Pass type
(mag) Time Alt. Az. Time Alt. Az. Time Alt. Az.
07 Oct ? 08:31:04 20° N 08:31:04 20° N 08:33:12 10° N visible
07 Oct ? 10:26:59 13° NNW 10:26:59 13° NNW 10:28:21 10° NNW visible
08 Oct ? 07:41:59 14° NNE 07:41:59 14° NNE 07:43:08 10° NNE visible
08 Oct ? 09:37:54 18° NNW 09:37:54 18° NNW 09:39:54 10° N visible
09 Oct ? 08:48:48 18° N 08:48:48 18° N 08:50:42 10° N visible
10 Oct ? 07:59:42 16° NNE 07:59:42 16° NNE 08:01:01 10° NNE visible
10 Oct ? 09:55:36 13° NNW 09:55:36 13° NNW 09:56:42 10° NNW visible
11 Oct ? 07:10:35 11° NNE 07:10:35 11° NNE 07:10:47 10° NNE visible
11 Oct ? 09:06:29 16° N 09:06:29 16° N 09:07:58 10° N visible
12 Oct ? 08:17:22 15° N 08:17:22 15° N 08:18:37 10° N visible
13 Oct ? 07:28:14 12° NNE 07:28:14 12° NNE 07:28:47 10° NNE visible
13 Oct ? 09:24:09 13° NNW 09:24:09 13° NNW 09:24:56 10° NNW visible
14 Oct ? 08:35:01 14° N 08:35:01 14° N 08:36:00 10° N visible
15 Oct ? 07:45:52 13° N 07:45:52 13° N 07:46:29 10° N visible
16 Oct ? 08:52:37 12° N 08:52:37 12° N 08:53:05 10° N visible
